Year,Month,Day,Hour,Minute,Value (Times are PST for temperature in C)
2016,08,13,00,00,17.90
2016,08,13,00,01,17.90
2016,08,13,00,02,17.90
2016,08,13,00,03,17.90
2016,08,13,00,04,17.90
2016,08,13,00,05,17.90
2016,08,13,00,06,17.90
2016,08,13,00,07,17.80
2016,08,13,00,08,17.80
2016,08,13,00,09,17.80
2016,08,13,00,10,17.80
2016,08,13,00,11,17.80
2016,08,13,00,12,17.80
2016,08,13,00,13,17.70
2016,08,13,00,14,17.70
2016,08,13,00,15,17.70
2016,08,13,00,16,17.70
2016,08,13,00,17,17.70
2016,08,13,00,18,17.70
2016,08,13,00,19,17.70
2016,08,13,00,20,17.70
2016,08,13,00,21,17.70
2016,08,13,00,22,17.70
2016,08,13,00,23,17.70
2016,08,13,00,24,17.70
2016,08,13,00,25,17.70
2016,08,13,00,26,17.70
2016,08,13,00,27,17.70
2016,08,13,00,28,17.70
2016,08,13,00,29,17.80
2016,08,13,00,30,17.80
2016,08,13,00,31,17.80
2016,08,13,00,32,17.80
2016,08,13,00,33,17.80
2016,08,13,00,34,17.90
2016,08,13,00,35,17.90
2016,08,13,00,36,17.90
2016,08,13,00,37,17.90
2016,08,13,00,38,17.90
2016,08,13,00,39,17.90
2016,08,13,00,40,17.90
2016,08,13,00,41,17.90
2016,08,13,00,42,17.90
2016,08,13,00,43,17.90
2016,08,13,00,44,18.00
2016,08,13,00,45,18.10
2016,08,13,00,46,18.10
2016,08,13,00,47,18.10
2016,08,13,00,48,18.10
2016,08,13,00,49,18.10
2016,08,13,00,50,18.10
2016,08,13,00,51,18.10
2016,08,13,00,52,18.10
2016,08,13,00,53,18.10
2016,08,13,00,54,18.20
2016,08,13,00,55,18.20
2016,08,13,00,56,18.20
2016,08,13,00,57,18.20
2016,08,13,00,58,18.20
2016,08,13,00,59,18.20
2016,08,13,01,00,18.20
2016,08,13,01,01,18.10
2016,08,13,01,02,18.10
2016,08,13,01,03,18.00
2016,08,13,01,04,17.90
2016,08,13,01,05,17.90
2016,08,13,01,06,17.90
2016,08,13,01,07,17.90
2016,08,13,01,08,17.90
2016,08,13,01,09,17.90
2016,08,13,01,10,17.90
2016,08,13,01,11,17.80
2016,08,13,01,12,17.80
2016,08,13,01,13,17.80
2016,08,13,01,14,17.90
2016,08,13,01,15,17.90
2016,08,13,01,16,17.90
2016,08,13,01,17,17.90
2016,08,13,01,18,17.90
2016,08,13,01,19,17.90
2016,08,13,01,20,18.00
2016,08,13,01,21,18.10
2016,08,13,01,22,18.10
2016,08,13,01,23,18.10
2016,08,13,01,24,18.10
2016,08,13,01,25,18.20
2016,08,13,01,26,18.20
2016,08,13,01,27,18.20
2016,08,13,01,28,18.20
2016,08,13,01,29,18.30
2016,08,13,01,30,18.40
2016,08,13,01,31,18.50
2016,08,13,01,32,18.50
2016,08,13,01,33,18.60
2016,08,13,01,34,18.60
2016,08,13,01,35,18.60
2016,08,13,01,36,18.60
2016,08,13,01,37,18.60
2016,08,13,01,38,18.60
2016,08,13,01,39,18.60
2016,08,13,01,40,18.60
2016,08,13,01,41,18.60
2016,08,13,01,42,18.60
2016,08,13,01,43,18.60
2016,08,13,01,44,18.60
2016,08,13,01,45,18.70
2016,08,13,01,46,18.70
2016,08,13,01,47,18.70
2016,08,13,01,48,18.70
2016,08,13,01,49,18.80
2016,08,13,01,50,18.90
2016,08,13,01,51,18.90
2016,08,13,01,52,18.90
2016,08,13,01,53,18.90
2016,08,13,01,54,18.90
2016,08,13,01,55,18.90
2016,08,13,01,56,18.90
2016,08,13,01,57,18.90
2016,08,13,01,58,18.90
2016,08,13,01,59,18.90
2016,08,13,02,00,18.90
2016,08,13,02,01,18.90
2016,08,13,02,02,18.90
2016,08,13,02,03,18.90
2016,08,13,02,04,18.80
2016,08,13,02,05,18.80
2016,08,13,02,06,18.80
2016,08,13,02,07,18.80
2016,08,13,02,08,18.80
2016,08,13,02,09,18.90
2016,08,13,02,10,18.90
2016,08,13,02,11,18.90
2016,08,13,02,12,18.90
2016,08,13,02,13,18.90
2016,08,13,02,14,18.90
2016,08,13,02,15,18.90
2016,08,13,02,16,18.90
2016,08,13,02,17,18.90
2016,08,13,02,18,18.90
2016,08,13,02,19,18.90
2016,08,13,02,20,18.90
2016,08,13,02,21,18.90
2016,08,13,02,22,18.90
2016,08,13,02,23,18.90
2016,08,13,02,24,18.90
2016,08,13,02,25,18.90
2016,08,13,02,26,18.90
2016,08,13,02,27,18.90
2016,08,13,02,28,18.90
2016,08,13,02,29,18.90
2016,08,13,02,30,18.80
2016,08,13,02,31,18.80
2016,08,13,02,32,18.90
2016,08,13,02,33,18.90
2016,08,13,02,34,18.80
2016,08,13,02,35,18.80
2016,08,13,02,36,18.80
2016,08,13,02,37,18.80
2016,08,13,02,38,18.80
2016,08,13,02,39,18.70
2016,08,13,02,40,18.70
2016,08,13,02,41,18.60
2016,08,13,02,42,18.60
2016,08,13,02,43,18.50
2016,08,13,02,44,18.50
2016,08,13,02,45,18.50
2016,08,13,02,46,18.40
2016,08,13,02,47,18.40
2016,08,13,02,48,18.40
2016,08,13,02,49,18.40
2016,08,13,02,50,18.40
2016,08,13,02,51,18.40
2016,08,13,02,52,18.30
2016,08,13,02,53,18.30
2016,08,13,02,54,18.30
2016,08,13,02,55,18.30
2016,08,13,02,56,18.30
2016,08,13,02,57,18.30
2016,08,13,02,58,18.20
2016,08,13,02,59,18.20
2016,08,13,03,00,18.20
2016,08,13,03,01,18.20
2016,08,13,03,02,18.20
2016,08,13,03,03,18.20
2016,08,13,03,04,18.20
2016,08,13,03,05,18.20
2016,08,13,03,06,18.20
2016,08,13,03,07,18.10
2016,08,13,03,08,18.10
2016,08,13,03,09,18.10
2016,08,13,03,10,18.10
2016,08,13,03,11,18.10
2016,08,13,03,12,18.10
2016,08,13,03,13,18.10
2016,08,13,03,14,18.10
2016,08,13,03,15,18.10
2016,08,13,03,16,18.20
2016,08,13,03,17,18.20
2016,08,13,03,18,18.20
2016,08,13,03,19,18.20
2016,08,13,03,20,18.20
2016,08,13,03,21,18.30
2016,08,13,03,22,18.30
2016,08,13,03,23,18.30
2016,08,13,03,24,18.40
2016,08,13,03,25,18.40
2016,08,13,03,26,18.40
2016,08,13,03,27,18.50
2016,08,13,03,28,18.50
2016,08,13,03,29,18.50
2016,08,13,03,30,18.50
2016,08,13,03,31,18.50
2016,08,13,03,32,18.50
2016,08,13,03,33,18.50
2016,08,13,03,34,18.50
2016,08,13,03,35,18.50
2016,08,13,03,36,18.50
2016,08,13,03,37,18.60
2016,08,13,03,38,18.60
2016,08,13,03,39,18.60
2016,08,13,03,40,18.60
2016,08,13,03,41,18.60
2016,08,13,03,42,18.60
2016,08,13,03,43,18.60
2016,08,13,03,44,18.60
2016,08,13,03,45,18.60
2016,08,13,03,46,18.60
2016,08,13,03,47,18.60
2016,08,13,03,48,18.60
2016,08,13,03,49,18.60
2016,08,13,03,50,18.60
2016,08,13,03,51,18.50
2016,08,13,03,52,18.50
2016,08,13,03,53,18.50
2016,08,13,03,54,18.50
2016,08,13,03,55,18.40
2016,08,13,03,56,18.40
2016,08,13,03,57,18.40
2016,08,13,03,58,18.40
2016,08,13,03,59,18.40
2016,08,13,04,00,18.40
2016,08,13,04,01,18.40
2016,08,13,04,02,18.30
2016,08,13,04,03,18.30
2016,08,13,04,04,18.30
2016,08,13,04,05,18.30
2016,08,13,04,06,18.30
2016,08,13,04,07,18.30
2016,08,13,04,08,18.30
2016,08,13,04,09,18.30
2016,08,13,04,10,18.30
2016,08,13,04,11,18.20
2016,08,13,04,12,18.20
2016,08,13,04,13,18.20
2016,08,13,04,14,18.20
2016,08,13,04,15,18.20
2016,08,13,04,16,18.20
2016,08,13,04,17,18.10
2016,08,13,04,18,18.10
2016,08,13,04,19,18.10
2016,08,13,04,20,18.10
2016,08,13,04,21,18.00
2016,08,13,04,22,17.90
2016,08,13,04,23,17.90
2016,08,13,04,24,17.90
2016,08,13,04,25,17.90
2016,08,13,04,26,17.90
2016,08,13,04,27,17.90
2016,08,13,04,28,17.90
2016,08,13,04,29,17.90
2016,08,13,04,30,17.90
2016,08,13,04,31,17.90
2016,08,13,04,32,17.80
2016,08,13,04,33,17.80
2016,08,13,04,34,17.80
2016,08,13,04,35,17.80
2016,08,13,04,36,17.70
2016,08,13,04,37,17.70
2016,08,13,04,38,17.70
2016,08,13,04,39,17.70
2016,08,13,04,40,17.60
2016,08,13,04,41,17.60
2016,08,13,04,42,17.60
2016,08,13,04,43,17.60
2016,08,13,04,44,17.60
2016,08,13,04,45,17.50
2016,08,13,04,46,17.50
2016,08,13,04,47,17.50
2016,08,13,04,48,17.50
2016,08,13,04,49,17.50
2016,08,13,04,50,17.40
2016,08,13,04,51,17.40
2016,08,13,04,52,17.40
2016,08,13,04,53,17.40
2016,08,13,04,54,17.40
2016,08,13,04,55,17.40
2016,08,13,04,56,17.40
2016,08,13,04,57,17.40
2016,08,13,04,58,17.40
2016,08,13,04,59,17.50
2016,08,13,05,00,17.50
2016,08,13,05,01,17.50
2016,08,13,05,02,17.50
2016,08,13,05,03,17.50
2016,08,13,05,04,17.50
2016,08,13,05,05,17.50
2016,08,13,05,06,17.50
2016,08,13,05,07,17.50
2016,08,13,05,08,17.50
2016,08,13,05,09,17.50
2016,08,13,05,10,17.50
2016,08,13,05,11,17.50
2016,08,13,05,12,17.50
2016,08,13,05,13,17.50
2016,08,13,05,14,17.50
2016,08,13,05,15,17.50
2016,08,13,05,16,17.50
2016,08,13,05,17,17.50
2016,08,13,05,18,17.50
2016,08,13,05,19,17.50
2016,08,13,05,20,17.50
2016,08,13,05,21,17.50
2016,08,13,05,22,17.40
2016,08,13,05,23,17.40
2016,08,13,05,24,17.40
2016,08,13,05,25,17.40
2016,08,13,05,26,17.40
2016,08,13,05,27,17.40
2016,08,13,05,28,17.40
2016,08,13,05,29,17.40
2016,08,13,05,30,17.40
2016,08,13,05,31,17.30
2016,08,13,05,32,17.30
2016,08,13,05,33,17.30
2016,08,13,05,34,17.30
2016,08,13,05,35,17.30
2016,08,13,05,36,17.30
2016,08,13,05,37,17.30
2016,08,13,05,38,17.30
2016,08,13,05,39,17.40
2016,08,13,05,40,17.40
2016,08,13,05,41,17.40
2016,08,13,05,42,17.50
2016,08,13,05,43,17.50
2016,08,13,05,44,17.50
2016,08,13,05,45,17.50
2016,08,13,05,46,17.50
2016,08,13,05,47,17.50
2016,08,13,05,48,17.50
2016,08,13,05,49,17.50
2016,08,13,05,50,17.50
2016,08,13,05,51,17.50
2016,08,13,05,52,17.40
2016,08,13,05,53,17.40
2016,08,13,05,54,17.40
2016,08,13,05,55,17.40
2016,08,13,05,56,17.40
2016,08,13,05,57,17.40
2016,08,13,05,58,17.40
2016,08,13,05,59,17.40
2016,08,13,06,00,17.40
2016,08,13,06,01,17.40
2016,08,13,06,02,17.40
2016,08,13,06,03,17.40
2016,08,13,06,04,17.40
2016,08,13,06,05,17.30
2016,08,13,06,06,17.30
2016,08,13,06,07,17.30
2016,08,13,06,08,17.30
2016,08,13,06,09,17.30
2016,08,13,06,10,17.30
2016,08,13,06,11,17.30
2016,08,13,06,12,17.30
2016,08,13,06,13,17.30
2016,08,13,06,14,17.30
2016,08,13,06,15,17.20
2016,08,13,06,16,17.20
2016,08,13,06,17,17.20
2016,08,13,06,18,17.20
2016,08,13,06,19,17.20
2016,08,13,06,20,17.10
2016,08,13,06,21,17.10
2016,08,13,06,22,17.10
2016,08,13,06,23,17.10
2016,08,13,06,24,17.10
2016,08,13,06,25,17.10
2016,08,13,06,26,17.10
2016,08,13,06,27,17.10
2016,08,13,06,28,17.10
2016,08,13,06,29,17.00
2016,08,13,06,30,17.00
2016,08,13,06,31,17.00
2016,08,13,06,32,17.00
2016,08,13,06,33,17.00
2016,08,13,06,34,17.00
2016,08,13,06,35,16.90
2016,08,13,06,36,16.90
2016,08,13,06,37,16.90
2016,08,13,06,38,16.90
2016,08,13,06,39,16.90
2016,08,13,06,40,17.00
2016,08,13,06,41,17.00
2016,08,13,06,42,17.00
2016,08,13,06,43,17.00
2016,08,13,06,44,17.00
2016,08,13,06,45,17.00
2016,08,13,06,46,17.10
2016,08,13,06,47,17.10
2016,08,13,06,48,17.10
2016,08,13,06,49,17.20
2016,08,13,06,50,17.20
2016,08,13,06,51,17.20
2016,08,13,06,52,17.20
2016,08,13,06,53,17.20
2016,08,13,06,54,17.20
2016,08,13,06,55,17.20
2016,08,13,06,56,17.20
2016,08,13,06,57,17.20
2016,08,13,06,58,17.20
2016,08,13,06,59,17.20
2016,08,13,07,00,17.20
2016,08,13,07,01,17.30
2016,08,13,07,02,17.30
2016,08,13,07,03,17.30
2016,08,13,07,04,17.30
2016,08,13,07,05,17.30
2016,08,13,07,06,17.30
2016,08,13,07,07,17.30
2016,08,13,07,08,17.30
2016,08,13,07,09,17.30
2016,08,13,07,10,17.40
2016,08,13,07,11,17.50
2016,08,13,07,12,17.50
2016,08,13,07,13,17.60
2016,08,13,07,14,17.70
2016,08,13,07,15,17.70
2016,08,13,07,16,17.80
2016,08,13,07,17,17.90
2016,08,13,07,18,18.00
2016,08,13,07,19,18.10
2016,08,13,07,20,18.20
2016,08,13,07,21,18.20
2016,08,13,07,22,18.30
2016,08,13,07,23,18.40
2016,08,13,07,24,18.50
2016,08,13,07,25,18.50
2016,08,13,07,26,18.60
2016,08,13,07,27,18.70
2016,08,13,07,28,18.80
2016,08,13,07,29,18.80
2016,08,13,07,30,18.90
2016,08,13,07,31,19.00
2016,08,13,07,32,19.10
2016,08,13,07,33,19.10
2016,08,13,07,34,19.10
2016,08,13,07,35,19.10
2016,08,13,07,36,19.20
2016,08,13,07,37,19.30
2016,08,13,07,38,19.40
2016,08,13,07,39,19.40
2016,08,13,07,40,19.40
2016,08,13,07,41,19.40
2016,08,13,07,42,19.40
2016,08,13,07,43,19.40
2016,08,13,07,44,19.40
2016,08,13,07,45,19.50
2016,08,13,07,46,19.50
2016,08,13,07,47,19.60
2016,08,13,07,48,19.60
2016,08,13,07,49,19.70
2016,08,13,07,50,19.80
2016,08,13,07,51,19.80
2016,08,13,07,52,19.90
2016,08,13,07,53,19.90
2016,08,13,07,54,20.00
2016,08,13,07,55,20.10
2016,08,13,07,56,20.10
2016,08,13,07,57,20.20
2016,08,13,07,58,20.30
2016,08,13,07,59,20.40
2016,08,13,08,00,20.50
2016,08,13,08,01,20.50
2016,08,13,08,02,20.50
2016,08,13,08,03,20.60
2016,08,13,08,04,20.70
2016,08,13,08,05,20.70
2016,08,13,08,06,20.80
2016,08,13,08,07,20.80
2016,08,13,08,08,20.90
2016,08,13,08,09,20.90
2016,08,13,08,10,21.00
2016,08,13,08,11,21.10
2016,08,13,08,12,21.10
2016,08,13,08,13,21.20
2016,08,13,08,14,21.30
2016,08,13,08,15,21.30
2016,08,13,08,16,21.30
2016,08,13,08,17,21.30
2016,08,13,08,18,21.30
2016,08,13,08,19,21.30
2016,08,13,08,20,21.30
2016,08,13,08,21,21.30
2016,08,13,08,22,21.30
2016,08,13,08,23,21.30
2016,08,13,08,24,21.30
2016,08,13,08,25,21.30
2016,08,13,08,26,21.30
2016,08,13,08,27,21.30
2016,08,13,08,28,21.30
2016,08,13,08,29,21.20
2016,08,13,08,30,21.20
2016,08,13,08,31,21.20
2016,08,13,08,32,21.10
2016,08,13,08,33,21.10
2016,08,13,08,34,21.00
2016,08,13,08,35,20.90
2016,08,13,08,36,20.90
2016,08,13,08,37,20.80
2016,08,13,08,38,20.70
2016,08,13,08,39,20.60
2016,08,13,08,40,20.60
2016,08,13,08,41,20.60
2016,08,13,08,42,20.60
2016,08,13,08,43,20.60
2016,08,13,08,44,20.50
2016,08,13,08,45,20.50
2016,08,13,08,46,20.50
2016,08,13,08,47,20.50
2016,08,13,08,48,20.50
2016,08,13,08,49,20.50
2016,08,13,08,50,20.40
2016,08,13,08,51,20.40
2016,08,13,08,52,20.40
2016,08,13,08,53,20.40
2016,08,13,08,54,20.40
2016,08,13,08,55,20.40
2016,08,13,08,56,20.40
2016,08,13,08,57,20.40
2016,08,13,08,58,20.40
2016,08,13,08,59,20.50
2016,08,13,09,00,20.50
2016,08,13,09,01,20.50
2016,08,13,09,02,20.50
2016,08,13,09,03,20.60
2016,08,13,09,04,20.70
2016,08,13,09,05,20.70
2016,08,13,09,06,20.70
2016,08,13,09,07,20.70
2016,08,13,09,08,20.70
2016,08,13,09,09,20.80
2016,08,13,09,10,20.90
2016,08,13,09,11,21.00
2016,08,13,09,12,21.10
2016,08,13,09,13,21.20
2016,08,13,09,14,21.30
2016,08,13,09,15,21.30
2016,08,13,09,16,21.30
2016,08,13,09,17,21.30
2016,08,13,09,18,21.20
2016,08,13,09,19,21.20
2016,08,13,09,20,21.20
2016,08,13,09,21,21.20
2016,08,13,09,22,21.20
2016,08,13,09,23,21.30
2016,08,13,09,24,21.30
2016,08,13,09,25,21.30
2016,08,13,09,26,21.30
2016,08,13,09,27,21.50
2016,08,13,09,28,21.60
2016,08,13,09,29,21.70
2016,08,13,09,30,21.80
2016,08,13,09,31,21.80
2016,08,13,09,32,21.80
2016,08,13,09,33,21.80
2016,08,13,09,34,21.80
2016,08,13,09,35,21.80
2016,08,13,09,36,21.70
2016,08,13,09,37,21.60
2016,08,13,09,38,21.60
2016,08,13,09,39,21.50
2016,08,13,09,40,21.40
2016,08,13,09,41,21.30
2016,08,13,09,42,21.30
2016,08,13,09,43,21.30
2016,08,13,09,44,21.40
2016,08,13,09,45,21.40
2016,08,13,09,46,21.50
2016,08,13,09,47,21.60
2016,08,13,09,48,21.70
2016,08,13,09,49,21.60
2016,08,13,09,50,21.60
2016,08,13,09,51,21.60
2016,08,13,09,52,21.60
2016,08,13,09,53,21.60
2016,08,13,09,54,21.40
2016,08,13,09,55,21.40
2016,08,13,09,56,21.40
2016,08,13,09,57,21.50
2016,08,13,09,58,21.60
2016,08,13,09,59,21.60
2016,08,13,10,00,21.60
2016,08,13,10,01,21.60
2016,08,13,10,02,21.60
2016,08,13,10,03,21.50
2016,08,13,10,04,21.40
2016,08,13,10,05,21.30
2016,08,13,10,06,21.30
2016,08,13,10,07,21.20
2016,08,13,10,08,21.10
2016,08,13,10,09,21.00
2016,08,13,10,10,21.00
2016,08,13,10,11,20.90
2016,08,13,10,12,20.90
2016,08,13,10,13,20.90
2016,08,13,10,14,21.00
2016,08,13,10,15,21.10
2016,08,13,10,16,21.10
2016,08,13,10,17,21.20
2016,08,13,10,18,21.30
2016,08,13,10,19,21.30
2016,08,13,10,20,21.40
2016,08,13,10,21,21.50
2016,08,13,10,22,21.60
2016,08,13,10,23,21.70
2016,08,13,10,24,21.70
2016,08,13,10,25,21.80
2016,08,13,10,26,21.90
2016,08,13,10,27,22.00
2016,08,13,10,28,21.90
2016,08,13,10,29,22.00
2016,08,13,10,30,21.90
2016,08,13,10,31,21.90
2016,08,13,10,32,21.90
2016,08,13,10,33,21.90
2016,08,13,10,34,21.90
2016,08,13,10,35,21.90
2016,08,13,10,36,22.00
2016,08,13,10,37,22.00
2016,08,13,10,38,22.10
2016,08,13,10,39,22.10
2016,08,13,10,40,22.00
2016,08,13,10,41,21.90
2016,08,13,10,42,21.80
2016,08,13,10,43,21.70
2016,08,13,10,44,21.60
2016,08,13,10,45,21.60
2016,08,13,10,46,21.50
2016,08,13,10,47,21.40
2016,08,13,10,48,21.40
2016,08,13,10,49,21.30
2016,08,13,10,50,21.30
2016,08,13,10,51,21.30
2016,08,13,10,52,21.30
2016,08,13,10,53,21.20
2016,08,13,10,54,21.20
2016,08,13,10,55,21.10
2016,08,13,10,56,21.00
2016,08,13,10,57,20.90
2016,08,13,10,58,20.90
2016,08,13,10,59,21.00
2016,08,13,11,00,21.00
2016,08,13,11,01,21.10
2016,08,13,11,02,21.30
2016,08,13,11,03,21.30
2016,08,13,11,04,21.30
2016,08,13,11,05,21.30
2016,08,13,11,06,21.30
2016,08,13,11,07,21.20
2016,08,13,11,08,21.20
2016,08,13,11,09,21.10
2016,08,13,11,10,21.00
2016,08,13,11,11,21.00
2016,08,13,11,12,20.90
2016,08,13,11,13,20.90
2016,08,13,11,14,20.90
2016,08,13,11,15,20.90
2016,08,13,11,16,21.00
2016,08,13,11,17,21.10
2016,08,13,11,18,21.10
2016,08,13,11,19,21.30
2016,08,13,11,20,21.30
2016,08,13,11,21,21.40
2016,08,13,11,22,21.50
2016,08,13,11,23,21.60
2016,08,13,11,24,21.70
2016,08,13,11,25,21.70
2016,08,13,11,26,21.80
2016,08,13,11,27,21.80
2016,08,13,11,28,21.70
2016,08,13,11,29,21.50
2016,08,13,11,30,21.30
2016,08,13,11,31,21.10
2016,08,13,11,32,21.00
2016,08,13,11,33,21.00
2016,08,13,11,34,21.00
2016,08,13,11,35,21.10
2016,08,13,11,36,21.20
2016,08,13,11,37,21.40
2016,08,13,11,38,21.60
2016,08,13,11,39,21.80
2016,08,13,11,40,22.00
2016,08,13,11,41,22.00
2016,08,13,11,42,22.00
2016,08,13,11,43,22.00
2016,08,13,11,44,22.00
2016,08,13,11,45,21.80
2016,08,13,11,46,21.80
2016,08,13,11,47,21.60
2016,08,13,11,48,21.60
2016,08,13,11,49,21.60
2016,08,13,11,50,21.60
2016,08,13,11,51,21.60
2016,08,13,11,52,21.60
2016,08,13,11,53,21.60
2016,08,13,11,54,21.60
2016,08,13,11,55,21.60
2016,08,13,11,56,21.60
2016,08,13,11,57,21.70
2016,08,13,11,58,21.80
2016,08,13,11,59,21.80
2016,08,13,12,00,21.80
2016,08,13,12,01,21.80
2016,08,13,12,02,21.80
2016,08,13,12,03,21.80
2016,08,13,12,04,21.80
2016,08,13,12,05,21.80
2016,08,13,12,06,21.80
2016,08,13,12,07,21.80
2016,08,13,12,08,21.80
2016,08,13,12,09,21.70
2016,08,13,12,10,21.80
2016,08,13,12,11,21.90
2016,08,13,12,12,22.00
2016,08,13,12,13,22.00
2016,08,13,12,14,22.10
2016,08,13,12,15,22.10
2016,08,13,12,16,22.10
2016,08,13,12,17,22.10
2016,08,13,12,18,22.20
2016,08,13,12,19,22.30
2016,08,13,12,20,22.20
2016,08,13,12,21,22.10
2016,08,13,12,22,22.00
2016,08,13,12,23,22.10
2016,08,13,12,24,22.10
2016,08,13,12,25,22.10
2016,08,13,12,26,22.10
2016,08,13,12,27,22.20
2016,08,13,12,28,22.20
2016,08,13,12,29,22.30
2016,08,13,12,30,22.30
2016,08,13,12,31,22.40
2016,08,13,12,32,22.40
2016,08,13,12,33,22.40
2016,08,13,12,34,22.40
2016,08,13,12,35,22.50
2016,08,13,12,36,22.60
2016,08,13,12,37,22.60
2016,08,13,12,38,22.60
2016,08,13,12,39,22.60
2016,08,13,12,40,22.50
2016,08,13,12,41,22.50
2016,08,13,12,42,22.50
2016,08,13,12,43,22.50
2016,08,13,12,44,22.50
2016,08,13,12,45,22.50
2016,08,13,12,46,22.60
2016,08,13,12,47,22.60
2016,08,13,12,48,22.60
2016,08,13,12,49,22.60
2016,08,13,12,50,22.70
2016,08,13,12,51,22.70
2016,08,13,12,52,22.70
2016,08,13,12,53,22.90
2016,08,13,12,54,22.90
2016,08,13,12,55,22.90
2016,08,13,12,56,22.90
2016,08,13,12,57,23.00
2016,08,13,12,58,23.10
2016,08,13,12,59,23.20
2016,08,13,13,00,23.30
2016,08,13,13,01,23.40
2016,08,13,13,02,23.40
2016,08,13,13,03,23.40
2016,08,13,13,04,23.30
2016,08,13,13,05,23.30
2016,08,13,13,06,23.20
2016,08,13,13,07,23.10
2016,08,13,13,08,23.10
2016,08,13,13,09,23.00
2016,08,13,13,10,22.90
2016,08,13,13,11,22.70
2016,08,13,13,12,22.70
2016,08,13,13,13,22.70
2016,08,13,13,14,22.70
2016,08,13,13,15,22.70
2016,08,13,13,16,22.70
2016,08,13,13,17,22.80
2016,08,13,13,18,22.90
2016,08,13,13,19,22.90
2016,08,13,13,20,22.90
2016,08,13,13,21,23.10
2016,08,13,13,22,23.20
2016,08,13,13,23,23.20
2016,08,13,13,24,23.30
2016,08,13,13,25,23.30
2016,08,13,13,26,23.30
2016,08,13,13,27,23.50
2016,08,13,13,28,23.60
2016,08,13,13,29,23.60
2016,08,13,13,30,23.60
2016,08,13,13,31,23.60
2016,08,13,13,32,23.70
2016,08,13,13,33,23.70
2016,08,13,13,34,23.90
2016,08,13,13,35,24.00
2016,08,13,13,36,24.10
2016,08,13,13,37,24.10
2016,08,13,13,38,24.20
2016,08,13,13,39,24.20
2016,08,13,13,40,24.30
2016,08,13,13,41,24.40
2016,08,13,13,42,24.40
2016,08,13,13,43,24.50
2016,08,13,13,44,24.60
2016,08,13,13,45,24.60
2016,08,13,13,46,24.60
2016,08,13,13,47,24.60
2016,08,13,13,48,24.70
2016,08,13,13,49,24.70
2016,08,13,13,50,24.70
2016,08,13,13,51,24.80
2016,08,13,13,52,24.90
2016,08,13,13,53,24.90
2016,08,13,13,54,24.90
2016,08,13,13,55,24.90
2016,08,13,13,56,25.00
2016,08,13,13,57,24.90
2016,08,13,13,58,24.90
2016,08,13,13,59,24.90
2016,08,13,14,00,24.90
2016,08,13,14,01,24.80
2016,08,13,14,02,24.80
2016,08,13,14,03,24.80
2016,08,13,14,04,24.80
2016,08,13,14,05,24.80
2016,08,13,14,06,24.80
2016,08,13,14,07,24.80
2016,08,13,14,08,24.70
2016,08,13,14,09,24.60
2016,08,13,14,10,24.60
2016,08,13,14,11,24.60
2016,08,13,14,12,24.70
2016,08,13,14,13,24.80
2016,08,13,14,14,24.90
2016,08,13,14,15,24.90
2016,08,13,14,16,25.10
2016,08,13,14,17,25.10
2016,08,13,14,18,25.10
2016,08,13,14,19,25.00
2016,08,13,14,20,24.90
2016,08,13,14,21,24.90
2016,08,13,14,22,24.90
2016,08,13,14,23,24.90
2016,08,13,14,24,24.80
2016,08,13,14,25,24.70
2016,08,13,14,26,24.70
2016,08,13,14,27,24.60
2016,08,13,14,28,24.50
2016,08,13,14,29,24.50
2016,08,13,14,30,24.50
2016,08,13,14,31,24.50
2016,08,13,14,32,24.40
2016,08,13,14,33,24.30
2016,08,13,14,34,24.20
2016,08,13,14,35,24.10
2016,08,13,14,36,24.20
2016,08,13,14,37,24.30
2016,08,13,14,38,24.40
2016,08,13,14,39,24.40
2016,08,13,14,40,24.40
2016,08,13,14,41,24.40
2016,08,13,14,42,24.30
2016,08,13,14,43,24.10
2016,08,13,14,44,23.90
2016,08,13,14,45,23.70
2016,08,13,14,46,23.70
2016,08,13,14,47,23.50
2016,08,13,14,48,23.30
2016,08,13,14,49,23.30
2016,08,13,14,50,23.40
2016,08,13,14,51,23.60
2016,08,13,14,52,23.70
2016,08,13,14,53,23.70
2016,08,13,14,54,23.80
2016,08,13,14,55,23.80
2016,08,13,14,56,23.80
2016,08,13,14,57,23.90
2016,08,13,14,58,23.90
2016,08,13,14,59,24.00
2016,08,13,15,00,24.10
2016,08,13,15,01,24.10
2016,08,13,15,02,24.10
2016,08,13,15,03,24.10
2016,08,13,15,04,24.00
2016,08,13,15,05,23.90
2016,08,13,15,06,23.70
2016,08,13,15,07,23.70
2016,08,13,15,08,23.70
2016,08,13,15,09,23.60
2016,08,13,15,10,23.50
2016,08,13,15,11,23.50
2016,08,13,15,12,23.40
2016,08,13,15,13,23.40
2016,08,13,15,14,23.30
2016,08,13,15,15,23.30
2016,08,13,15,16,23.20
2016,08,13,15,17,23.20
2016,08,13,15,18,23.20
2016,08,13,15,19,23.20
2016,08,13,15,20,23.10
2016,08,13,15,21,23.00
2016,08,13,15,22,22.90
2016,08,13,15,23,22.90
2016,08,13,15,24,22.90
2016,08,13,15,25,22.90
2016,08,13,15,26,22.90
2016,08,13,15,27,23.00
2016,08,13,15,28,23.00
2016,08,13,15,29,23.10
2016,08,13,15,30,23.10
2016,08,13,15,31,23.00
2016,08,13,15,32,22.90
2016,08,13,15,33,22.90
2016,08,13,15,34,22.90
2016,08,13,15,35,22.90
2016,08,13,15,36,22.90
2016,08,13,15,37,22.90
2016,08,13,15,38,23.00
2016,08,13,15,39,23.10
2016,08,13,15,40,23.00
2016,08,13,15,41,22.90
2016,08,13,15,42,22.90
2016,08,13,15,43,22.80
2016,08,13,15,44,22.70
2016,08,13,15,45,22.60
2016,08,13,15,46,22.60
2016,08,13,15,47,22.60
2016,08,13,15,48,22.60
2016,08,13,15,49,22.50
2016,08,13,15,50,22.50
2016,08,13,15,51,22.60
2016,08,13,15,52,22.60
2016,08,13,15,53,22.70
2016,08,13,15,54,22.70
2016,08,13,15,55,22.70
2016,08,13,15,56,22.70
2016,08,13,15,57,22.60
2016,08,13,15,58,22.60
2016,08,13,15,59,22.70
2016,08,13,16,00,22.70
2016,08,13,16,01,22.80
2016,08,13,16,02,22.80
2016,08,13,16,03,22.80
2016,08,13,16,04,22.80
2016,08,13,16,05,22.80
2016,08,13,16,06,22.80
2016,08,13,16,07,22.90
2016,08,13,16,08,23.10
2016,08,13,16,09,23.20
2016,08,13,16,10,23.30
2016,08,13,16,11,23.30
2016,08,13,16,12,23.30
2016,08,13,16,13,23.30
2016,08,13,16,14,23.40
2016,08,13,16,15,23.50
2016,08,13,16,16,23.60
2016,08,13,16,17,23.70
2016,08,13,16,18,23.70
2016,08,13,16,19,23.80
2016,08,13,16,20,23.90
2016,08,13,16,21,24.00
2016,08,13,16,22,24.10
2016,08,13,16,23,24.20
2016,08,13,16,24,24.30
2016,08,13,16,25,24.40
2016,08,13,16,26,24.50
2016,08,13,16,27,24.50
2016,08,13,16,28,24.50
2016,08,13,16,29,24.50
2016,08,13,16,30,24.40
2016,08,13,16,31,24.40
2016,08,13,16,32,24.30
2016,08,13,16,33,24.40
2016,08,13,16,34,24.50
2016,08,13,16,35,24.60
2016,08,13,16,36,24.70
2016,08,13,16,37,24.60
2016,08,13,16,38,24.50
2016,08,13,16,39,24.40
2016,08,13,16,40,24.30
2016,08,13,16,41,24.30
2016,08,13,16,42,24.20
2016,08,13,16,43,24.20
2016,08,13,16,44,24.20
2016,08,13,16,45,24.10
2016,08,13,16,46,23.90
2016,08,13,16,47,23.70
2016,08,13,16,48,23.50
2016,08,13,16,49,23.40
2016,08,13,16,50,23.30
2016,08,13,16,51,23.00
2016,08,13,16,52,22.90
2016,08,13,16,53,22.80
2016,08,13,16,54,22.50
2016,08,13,16,55,22.40
2016,08,13,16,56,22.30
2016,08,13,16,57,22.20
2016,08,13,16,58,22.00
2016,08,13,16,59,21.70
2016,08,13,17,00,21.60
2016,08,13,17,01,21.50
2016,08,13,17,02,21.40
2016,08,13,17,03,21.30
2016,08,13,17,04,21.30
2016,08,13,17,05,21.30
2016,08,13,17,06,21.30
2016,08,13,17,07,21.30
2016,08,13,17,08,21.30
2016,08,13,17,09,21.40
2016,08,13,17,10,21.40
2016,08,13,17,11,21.40
2016,08,13,17,12,21.40
2016,08,13,17,13,21.30
2016,08,13,17,14,21.20
2016,08,13,17,15,21.20
2016,08,13,17,16,21.10
2016,08,13,17,17,21.00
2016,08,13,17,18,20.80
2016,08,13,17,19,20.70